Regional Weather Roundup
Issued by NWS

Home | Current Version | Previous Version | Graphics & Text | Print | Product List | Glossary Off
Versions: 1 2 3 4 5 6 7 8 9 10 11 12 13 14 15 16 17 18 19 20 21 22 23 24 25 26 27 28 29 30 31 32 33 34 35 36 37 38 39 40 41 42 43 44 45 46 47 48 49 50

000
ASUS43 KMKX 031911
RWRWI

WISCONSIN REGIONAL WEATHER ROUNDUP
NATIONAL WEATHER SERVICE MILWAUKEE/SULLIVAN WI
200 PM CDT WED JUN 03 2015

NOTE: "FAIR" INDICATES FEW OR NO CLOUDS BELOW 12,000 FEET WITH NO
SIGNIFICANT WEATHER AND/OR OBSTRUCTIONS TO VISIBILITY.

WIZ001-002-006>008-014>016-023>028-032000-
NORTHWEST WISCONSIN

CITY           SKY/WX    TMP DP  RH WIND       PRES   REMARKS
SUPERIOR ARPT  CLOUDY    55  52  89 N3        29.90R
ASHLAND        CLOUDY    70  59  68 SW6       29.90R
HAYWARD        CLOUDY    68  56  65 S9        29.93R
SIREN          CLOUDY    68  57  68 SW8       29.90S
CUMBERLAND     CLOUDY    63  55  77 S6        29.93S
RICE LAKE      CLOUDY    68  55  64 SW5       29.94R
CHETEK         CLOUDY    67  57  70 S5        29.93R
LADYSMITH      CLOUDY    71  56  60 S13       29.94R
EAU CLAIRE     CLOUDY    71  56  58 S12       29.91R
MENOMONIE      RAIN      69  58  68 S10       29.92R
NEW RICHMOND   RAIN      62  60  94 SW3       29.93R
OSCEOLA        HVY RAIN  63  63 100 S5        29.95R
$$

WIZ003>005-009-010-017-018-032000-
NORTH CENTRAL WISCONSIN

CITY           SKY/WX    TMP DP  RH WIND       PRES   REMARKS
MANITOWISH WTR PTSUNNY   73  52  48 S14G22    29.93R
ARBOR VITAE    PTSUNNY   74  53  46 S13G23    29.93S
WOODRUFF       PTSUNNY   74  53  46 S13G23    29.93S
RHINELANDER    PTSUNNY   74  52  46 S15G23    29.95F
EAGLE RIVER    MOSUNNY   74  50  41 S10G17    29.93S
LAND O LAKES   PTSUNNY   77  47  34 S12G18    29.94S
PHILLIPS       CLOUDY    70  55  57 S12       29.92R
TOMAHAWK       PTSUNNY   72  56  56 S7        29.94F
MEDFORD        PTSUNNY   69  56  63 SE13      29.94S
MERRILL        CLOUDY    72  55  54 S9        29.95F
$$

WIZ029-030-035-036-043>047-032000-
CENTRAL WISCONSIN

CITY           SKY/WX    TMP DP  RH WIND       PRES   REMARKS
WAUSAU         CLOUDY    73  54  51 S16       29.94S
MOSINEE        MOSUNNY   72  55  56 S16G23    29.96F
MARSHFIELD     CLOUDY    73  55  53 SE16G24   29.93F
STEVENS POINT  PTSUNNY   73  54  50 SE18      29.96S
WAUPACA        PTSUNNY   77  54  44 SE12G21   29.97F
WAUTOMA        PTSUNNY   76  55  47 SE13G23   29.96F
WISC RAPIDS    PTSUNNY   75  53  46 S12       29.95F
CAMP DOUGLAS   CLOUDY    73  61  64 S13G21    29.94S
$$

WIZ011>013-019>022-031-037>040-048>050-032000-
NORTHEAST WISCONSIN

CITY           SKY/WX    TMP DP  RH WIND       PRES   REMARKS
ANTIGO         PTSUNNY   69  56  63 S10       29.98S
SHAWANO        MOSUNNY   74  52  46 S7        29.98S
OCONTO         MOSUNNY   72  51  47 SE12G21   29.99F
STURGEON BAY   SUNNY     64  50  59 S16       30.04F
GREEN BAY      MOSUNNY   75  50  41 SE15G24   29.99F
MANITOWOC      MOSUNNY   59  48  67 S15       30.04F
APPLETON       PTSUNNY   72  50  46 S17       29.99F
CLINTONVILLE   PTSUNNY   73  52  46 S10G17    29.98S
OSHKOSH        MOSUNNY   75  54  47 S12       29.98F
$$

WIZ032>034-041-042-053>061-032000-
SOUTHWEST WISCONSIN

CITY           SKY/WX    TMP DP  RH WIND       PRES   REMARKS
LA CROSSE      CLOUDY    75  57  53 SE18      29.91R
SPARTA         CLOUDY    74  55  49 S12G22    29.93S
VIROQUA        CLOUDY    73  56  55 S16       29.93F
BOSCOBEL       PTSUNNY   76  57  51 S12       29.93F
PRAIRIE DU CHI PTSUNNY   76  53  44 S12       29.90F
PLATTEVILLE    PTSUNNY   75  59  57 SE16      29.95F
$$

WIZ056-057-062-063-064-067-068-032000-
SOUTH CENTRAL WISCONSIN

CITY           SKY/WX    TMP DP  RH WIND       PRES   REMARKS
REEDSBURG      CLOUDY    73  58  59 S10       29.95F
BARABOO/DELLS  CLOUDY    72  56  57 SE15      29.96S
LONE ROCK      CLOUDY    76  56  49 S14       29.95F
MINERAL POINT  PTSUNNY   77  54  44 S16       29.96F
MADISON        PTSUNNY   74  55  51 S15       29.98R
MIDDLETON      PTSUNNY   76  54  46 S12G17    29.98S
WATERTOWN      MOSUNNY   73  56  55 S7        29.98F
MONROE         PTSUNNY   73  57  56 S14G20    29.98S
JANESVILLE     MOSUNNY   77  55  47 SE12G17   29.98F
$$

WIZ051-052-058>065-066-070>072-032000-
SOUTHEAST WISCONSIN

CITY           SKY/WX    TMP DP  RH WIND       PRES   REMARKS
MILWAUKEE      PTSUNNY   66  51  58 SE15      30.03F
WAUKESHA       MOSUNNY   72  52  49 SE9       30.01F
MILWAUKEE/TIMM SUNNY     70  46  43 SE15      30.03F
RACINE         SUNNY     66  52  60 SE13      30.05F
BURLINGTON     SUNNY     73  53  49 S10G16    30.00F
KENOSHA        SUNNY     69  53  56 SE15      30.03F
FOND DU LAC    MOSUNNY   75  54  47 S12G22    29.98F
SHEBOYGAN      MOSUNNY   65  52  62 SE13G20   30.03F
WEST BEND      MOSUNNY   70  46  43 SE14      30.02S
JUNEAU         PTSUNNY   72  56  55 S10       30.00F
$$

LSZ147-162-032000-
LAKE SUPERIOR

STATION/POSITION TIME  TEMP    WIND        PRES    WAVE
                       AIR SEA DIR/SP/G            HT/PER
                 (UTC) (F)     (DEG/KT/KT) (MB)    (FT/S)
W MID LAKE BUOY  1850   42 37   70/  8/  8   N/A     1
DEVILS ISLAND    1900   50      70/  8/  9   N/A
PORT WING        1800   48      50/  3/  4   N/A
SAXON HARBOR     1800   58      CALM  /  2   N/A
$$

LMZ867-665-643>646-032000-
LAKE MICHIGAN

STATION/POSITION TIME  TEMP    WIND        PRES    WAVE
                       AIR SEA DIR/SP/G            HT/PER
                 (UTC) (F)     (DEG/KT/KT) (MB)    (FT/S)
CHAMBERS ISLAND  1800   69     150/  6/ 14   N/A
N MID LAKE BUOY  1850   44 37  230/  8/ 10   N/A     1/ 3
NORTHPORT PIER   1800   58     150/ 10/ 15   N/A
ALGOMA LAKESHORE 1839          220/ 14/ 16   N/A
KEWAUNEE LAKESHO 1800   49     180/ 10/ 11   N/A
SHEBOYGAN LAKESH 1900   48     160/ 10/ 11   N/A
PORT WASHINGTON  1840   51     130/  4/  5   N/A
ATWATER BUOY     1800   49 48  150/  8/ 10   N/A
MILWAUKEE LAKESH 1800   50     120/ 13/ 15   N/A
S MID LAKE BUOY  1850   50 39  140/  4/  6   N/A     0
KENOSHA   LAKESH 1900   54     150/  7/  8   N/A
$$

TC  - TEMPERATURE IN CELSIUS
VSB - VISIBILITY IN STATUTE MILES
WCI - WIND CHILL INDEX
HX  - HEAT INDEX




USA.gov is the U.S. government's official web portal to all federal, state and local government web resources and services.